Regional Weather Roundup
Issued by NWS

Home | Current Version | Previous Version | Graphics & Text | Print | Product List | Glossary On
Versions: 1 2 3 4 5 6 7 8 9 10 11 12 13 14 15 16 17 18 19 20 21 22 23 24 25 26 27
000
ASUS43 KDMX 231507
RWRIA

WEATHER ROUNDUP FOR IOWA
NATIONAL WEATHER SERVICE DES MOINES IA
1000 AM CDT THU OCT 23 2014

NOTE: "FAIR" INDICATES FEW OR NO CLOUDS BELOW 12,000 FEET WITH NO
SIGNIFICANT WEATHER AND/OR OBSTRUCTIONS TO VISIBILITY.

* - THESE STATIONS ARE NOT NWS STATIONS...THUS NOT UNDER NWS
QUALITY CONTROL.  THEY ALSO DO NOT REPORT WEATHER SUCH
AS PRECIPITATION OR FOG.

IAZ001>003-012>014-020>022-031>034-043>046-231600-
   NORTHWEST IOWA

CITY           SKY/WX    TMP DP  RH WIND       PRES   REMARKS
CARROLL *      PTSUNNY   61  59  94 VRB7      30.04S
CHEROKEE *     FOG       50  50 100 CALM      30.06R VSB 1/4
DENISON *      MOSUNNY   59  57  94 SW5       30.04S
LE MARS *      FOG       50  50 100 S5        30.06S VSB 0
ORANGE CITY *  MOSUNNY   54  52  94 CALM      30.05R
SHELDON *      FOG       48  48 100 SW5       30.04R VSB 0
SIOUX CITY     MOSUNNY   52  52 100 CALM      30.07R
SPENCER        FOG       50  50 100 W3        30.05R VSB<1/4
STORM LAKE *   FOG       52  52 100 W6        30.06S VSB 0
$$

IAZ055>058-069>071-079>083-090>094-231600-
   SOUTHWEST IOWA

CITY           SKY/WX    TMP DP  RH WIND       PRES   REMARKS
ATLANTIC *     CLOUDY    61  59  94 W6        30.05R FOG
AUDUBON *      MOSUNNY   61  55  82 NW5       30.06R HAZE
CLARINDA *     CLOUDY    63  61  94 SW5       30.07S
COUNCIL BLFS * PTSUNNY   63  63 100 W8        30.05S
CRESTON *      FOG       57  57 100 S6        30.06S VSB 1/4
HARLAN  *      CLOUDY    61  61 100 NW8       30.09R FOG
LAMONI         PTSUNNY   59  56  89 W10       30.07R
RED OAK *      PTSUNNY   64  61  88 W9        30.06R
SHENANDOAH *   CLOUDY    63  61  94 W8        30.07R FOG
$$

IAZ047>049-059>061-072>074-084-231600-
   CENTRAL IOWA

CITY           SKY/WX    TMP DP  RH WIND       PRES   REMARKS
AMES           CLOUDY    56  54  93 SW6       30.04R FOG
ANKENY *       CLOUDY    57  55  94 S7        30.05R
CHARITON *     CLOUDY    57  52  82 SW10      30.06F
DES MOINES     PTSUNNY   56  53  90 SW8       30.05S
GRINNELL*      HVY RAIN  50  46  87 S6        30.07R
KNOXVILLE *    CLOUDY    55  50  82 SW7G13    30.05S
MARSHALLTOWN   CLOUDY    50  48  93 S6        30.04S
PELLA *        PTSUNNY   54  48  82 SW3       30.07S
PERRY *        CLOUDY    59  59 100 CALM      30.04S FOG
$$

IAZ004>006-015-016-023>025-035-036-231600-
   NORTH CENTRAL IOWA

CITY           SKY/WX    TMP DP  RH WIND       PRES   REMARKS
ALGONA *       CLOUDY    54  54 100 NW9       30.04S
CLARION *      FOG       54  54 100 SW5       30.04R VSB 1/2
ESTHERVILLE    CLOUDY    50  50 100 W6        30.03S FOG
FORT DODGE *   CLOUDY    57  54  88 NW6       30.05R
MASON CITY     CLOUDY    50  50 100 S5        30.05R FOG
FOREST CITY *  FOG       52  52 100 CALM      30.04R VSB 1/4
IOWA FALLS *   CLOUDY    52  50  93 S3        30.05R FOG
$$

IAZ007>011-017>019-026>030-037>042-050>054-066-231600-
   NORTHEAST IOWA

CITY           SKY/WX    TMP DP  RH WIND       PRES   REMARKS
CEDAR RAPIDS   CLOUDY    47  44  90 S10       30.08S
CHARLES CITY * FOG       48  48 100 S7        30.05R VSB 1
CLINTON *      CLOUDY    46  37  71 S9        30.16S
DECORAH *      CLOUDY    46  46 100 S7        30.05F FOG
DUBUQUE        CLOUDY    46  39  76 S12       30.10S
MONTICELLO *   CLOUDY    46  45  93 SE8       30.09F
OELWEIN *      LGT RAIN  46  46 100 S13       30.06S
WATERLOO       LGT RAIN  48  46  93 S8        30.05S FOG
$$

IAZ064-065-067-068-078-231600-
   EAST CENTRAL IOWA

CITY           SKY/WX    TMP DP  RH WIND       PRES   REMARKS
DAVENPORT      CLOUDY    50  40  68 S13       30.13S
IOWA CITY      CLOUDY    47  45  93 SE6       30.12R
MT. PLEASANT * CLOUDY    52  43  71 S10       30.11S
MUSCATINE *    CLOUDY    52  43  71 S8        30.13R
QUAD CITIES    CLOUDY    51  42  71 S9        30.13S
$$

IAZ062-063-075>077-085>089-095>099-231600-
   SOUTHEAST IOWA

CITY           SKY/WX    TMP DP  RH WIND       PRES   REMARKS
BURLINGTON     CLOUDY    52  44  74 S13       30.12F
FAIRFIELD *    PTSUNNY   54  45  71 S8        30.08F
FORT MADISON * PTSUNNY   54  46  76 S8        30.12F
KEOKUK *       PTSUNNY   52  45  76 S13       30.12F
OSKALOOSA *    CLOUDY    54  46  76 S8        30.07S
CENTERVILLE *  SUNNY     54  48  82 S9        30.10R
OTTUMWA        PTSUNNY   54  46  74 S7        30.07S
WASHINGTON *   CLOUDY    52  46  82 S8        30.09F
$$

ABBREVIATIONS USED IN REMARKS
   TC - TEMPERATURES IN CELSIUS
  WCI - WIND CHILL INDEX
   HX - HEAT INDEX
  VSB - VISIBILITY
$$




USA.gov is the U.S. government's official web portal to all federal, state and local government web resources and services.